Temp
12 12 12 12 12 12 12 12 12 12 12 12 12 12 12 12 12 12 12 12 11 11 11 11 11 10 10 10 10 11 13 15 14 14 15 15 14 15 14 14 14 14 15 15 14
11 12 12 12 12 12 12 12 12 12 12 12 12 12 12 12 12 13 13 12 12 11 11 11 10 10 11 11 11 13 13 15 15 15 15 14 14 14 14 14 15 15 15 14 14
11 12 12 12 12 12 12 13 13 12 12 12 12 12 12 12 12 13 13 12 12 11 11 10 10 10 11 11 12 13 13 15 14 13 13 13 13 13 14 14 14 15 15 15 14
11 11 12 12 12 12 12 13 13 13 13 12 12 12 11 11 15 13 13 12 12 11 10 10 9 11 12 12 12 12 13 13 13 12 12 13 13 13 13 14 14 14 14 14 13
11 11 12 12 12 12 13 13 13 13 13 12 12 11 11 10 12 13 12 12 11 11 10 10 10 11 12 12 11 12 13 13 12 12 11 12 12 13 13 13 13 14 14 13 13
11 11 12 12 12 12 13 13 13 13 13 13 12 11 10 10 13 12 12 12 11 11 10 10 10 10 11 11 11 12 11 12 12 12 12 12 13 12 14 14 13 13 13 13 13
11 11 12 12 12 12 13 13 13 13 13 13 12 11 9 11 12 12 11 11 11 10 10 9 9 9 10 11 10 10 11 13 13 13 13 11 12 12 13 13 13 13 13 13 13
11 11 12 12 12 12 13 13 13 14 13 13 12 10 9 12 11 10 10 10 10 9 9 9 9 9 9 10 11 11 12 13 14 13 13 12 13 16 14 12 13 14 14 13 13
11 11 12 12 12 12 12 12 13 13 13 12 10 8 10 11 10 10 10 10 10 9 8 8 8 9 9 10 12 12 14 13 14 12 12 12 13 15 13 13 13 13 14 14 13
11 11 11 12 11 11 12 12 12 12 11 10 8 8 10 10 11 10 10 9 9 8 8 8 9 11 10 11 13 14 13 14 12 13 12 12 13 14 14 13 13 13 14 14 14
10 10 11 11 11 11 11 11 10 9 9 11 12 13 11 10 10 10 9 8 8 9 10 9 10 11 13 12 13 12 11 12 13 14 11 12 13 14 14 14 13 13 13 14 14
9 9 10 10 10 10 9 9 9 7 7 11 12 8 9 9 9 8 8 9 9 10 10 9 9 13 12 11 10 11 11 12 13 11 11 13 13 15 15 14 13 13 13 14 14
8 9 9 9 10 8 8 7 7 6 6 8 7 8 8 7 9 8 8 9 10 10 10 11 12 10 10 10 10 11 11 13 11 11 12 11 16 15 16 13 11 11 12 13 14
6 7 8 9 8 8 7 6 6 6 8 11 9 7 8 8 8 8 8 9 9 10 10 10 12 10 10 10 10 11 12 11 10 10 11 11 14 16 15 15 14 14 13 12 13
5 7 7 7 7 7 6 6 6 6 9 10 9 7 8 8 8 7 7 8 10 9 9 11 9 9 9 11 11 11 10 10 10 10 9 11 10 16 15 16 14 15 13 13 13
5 6 7 6 6 5 5 6 6 8 8 10 8 8 9 8 8 6 7 7 7 9 9 10 8 9 11 10 10 10 9 9 9 9 9 13 11 14 16 15 15 15 14 13 12
4 4 5 4 3 4 5 5 7 8 10 9 8 8 7 9 8 8 8 8 8 7 8 9 9 9 9 9 8 9 10 9 9 7 11 6 8 14 15 14 14 14 13 12 12
4 1 1 2 3 4 4 7 6 8 7 6 6 7 8 7 8 7 8 8 8 8 9 9 10 8 8 10 10 9 10 10 11 11 12 7 10 15 14 13 12 12 11 10 11
2 2 1 2 3 3 4 5 6 3 2 3 6 7 7 6 6 7 7 8 7 7 8 11 11 7 8 8 10 8 7 10 10 8 9 13 13 14 15 13 13 13 11 12 12
2 1 2 2 3 3 6 4 3 1 2 3 4 5 5 5 5 6 7 4 3 5 6 8 8 10 8 8 8 9 11 8 8 8 10 12 11 13 14 13 13 13 12 11 10
2 1 2 3 3 4 3 1 1 0 1 2 2 3 4 2 2 4 6 2 2 2 5 4 7 8 7 7 9 7 8 9 10 11 12 12 13 13 12 13 14 13 12 12 11
1 2 1 2 1 0 1 -1 -0 1 1 1 1 1 -0 -0 0 2 3 3 1 1 0 2 2 5 8 10 10 10 10 10 10 10 10 11 13 13 12 12 12 12 11 11 11
-2 -2 0 1 0 0 -0 -1 -1 0 0 1 1 1 1 0 -1 0 0 1 1 1 -0 -0 1 3 7 9 7 7 9 9 10 11 11 9 12 12 11 11 10 10 11 10 10
-2 -1 -1 -2 -3 -2 -2 -1 -1 -1 -1 -0 0 0 0 -0 0 -1 -0 1 1 1 0 1 -1 0 2 6 4 5 7 9 9 8 10 10 11 13 12 12 11 10 10 10 10
-3 -3 -3 -1 -1 -1 -3 -2 -2 -1 -0 -1 -0 -0 -1 -2 -1 -0 1 1 1 0 0 1 -1 0 0 1 1 1 1 4 6 8 10 11 11 12 14 14 14 13 11 11 11
-3 -3 -4 -3 -3 -3 -1 -1 -1 -1 -1 -1 -1 -1 -1 -2 -1 -2 -1 -1 -1 0 -0 0 -1 0 -1 1 1 0 1 2 2 7 8 9 10 13 12 12 11 11 11 11 11
-4 -4 -4 -2 -3 -3 -1 -1 -1 -1 -1 -1 -1 -2 -2 -1 -1 -1 -1 -1 -1 -1 -1 -1 -2 -2 -2 0 1 1 2 3 4 6 8 8 10 11 11 11 11 11 10 10 10
Height
1548 1546 1545 1543 1541 1539 1538 1536 1535 1533 1531 1530 1528 1527 1525 1523 1521 1519 1518 1518 1515 1514 1514 1514 1514 1514 1515 1516 1516 1516 1511 1501 1499 1499 1493 1495 1495 1495 1495 1493 1492 1491 1487 1483 1480
1547 1545 1544 1541 1540 1538 1536 1535 1532 1530 1528 1527 1525 1524 1522 1520 1517 1514 1515 1514 1513 1512 1513 1513 1514 1514 1515 1515 1515 1513 1506 1497 1496 1495 1494 1493 1493 1492 1491 1489 1487 1486 1483 1479 1476
1547 1545 1543 1541 1539 1537 1534 1532 1530 1528 1526 1525 1523 1521 1520 1518 1515 1510 1511 1511 1510 1510 1511 1512 1512 1514 1514 1513 1511 1508 1501 1497 1496 1496 1495 1492 1490 1488 1486 1483 1482 1480 1479 1476 1471
1547 1545 1542 1540 1537 1534 1532 1530 1527 1525 1523 1521 1520 1518 1517 1517 1514 1508 1508 1508 1508 1509 1510 1510 1511 1512 1510 1508 1508 1505 1499 1498 1496 1495 1493 1489 1487 1484 1482 1476 1475 1475 1474 1473 1466
1546 1544 1541 1538 1536 1533 1530 1527 1525 1523 1521 1519 1517 1515 1515 1514 1508 1505 1505 1506 1506 1506 1507 1509 1510 1510 1507 1506 1506 1501 1497 1495 1493 1491 1490 1487 1483 1479 1473 1471 1471 1470 1470 1469 1462
1545 1542 1539 1536 1533 1531 1528 1525 1522 1520 1517 1515 1514 1512 1512 1511 1502 1503 1504 1504 1504 1505 1505 1506 1507 1508 1507 1505 1504 1497 1496 1492 1489 1485 1484 1481 1476 1477 1466 1466 1464 1465 1463 1465 1463
1542 1539 1536 1534 1531 1529 1525 1522 1519 1517 1514 1512 1510 1509 1507 1502 1498 1499 1501 1502 1503 1504 1504 1505 1505 1507 1506 1502 1501 1498 1493 1486 1480 1478 1478 1478 1469 1465 1463 1463 1460 1458 1459 1457 1461
1539 1537 1534 1531 1528 1525 1522 1519 1515 1512 1510 1507 1506 1505 1500 1493 1493 1496 1497 1499 1501 1502 1503 1504 1504 1505 1505 1502 1498 1495 1491 1482 1474 1477 1474 1477 1455 1455 1460 1460 1456 1453 1453 1451 1450
1537 1534 1530 1527 1524 1521 1519 1515 1511 1508 1505 1503 1503 1503 1496 1491 1491 1493 1495 1497 1499 1501 1502 1503 1505 1504 1503 1500 1494 1490 1479 1477 1473 1474 1474 1472 1454 1452 1456 1455 1451 1449 1448 1448 1445
1533 1529 1526 1523 1520 1517 1514 1511 1507 1503 1502 1501 1500 1504 1493 1489 1488 1489 1493 1495 1497 1499 1502 1503 1503 1498 1497 1495 1483 1476 1480 1473 1477 1471 1471 1464 1448 1443 1445 1447 1444 1443 1441 1442 1440
1528 1524 1520 1517 1514 1511 1509 1508 1507 1503 1499 1495 1492 1485 1486 1486 1487 1487 1489 1493 1495 1497 1495 1498 1496 1485 1478 1482 1479 1482 1481 1476 1468 1468 1470 1455 1443 1433 1431 1434 1433 1434 1435 1435 1434
1525 1521 1516 1512 1508 1506 1506 1505 1504 1504 1494 1485 1480 1478 1481 1484 1484 1484 1488 1492 1492 1489 1492 1496 1487 1477 1481 1482 1483 1482 1480 1469 1464 1469 1469 1449 1434 1421 1419 1419 1420 1423 1425 1425 1425
1521 1517 1514 1510 1505 1504 1504 1504 1503 1501 1496 1477 1472 1473 1474 1478 1479 1480 1484 1486 1486 1486 1488 1480 1476 1476 1480 1482 1483 1478 1475 1467 1472 1467 1461 1456 1418 1413 1412 1417 1417 1418 1420 1421 1423
1517 1513 1509 1506 1506 1502 1502 1501 1501 1501 1493 1473 1473 1473 1474 1475 1477 1477 1480 1484 1485 1480 1483 1481 1474 1477 1479 1477 1478 1473 1469 1473 1475 1474 1462 1461 1435 1409 1410 1409 1410 1412 1413 1415 1417
1513 1508 1505 1502 1502 1500 1502 1500 1500 1500 1493 1474 1474 1476 1475 1478 1478 1477 1479 1481 1478 1479 1482 1470 1474 1475 1474 1470 1473 1471 1474 1474 1475 1473 1473 1455 1458 1411 1409 1404 1408 1409 1410 1411 1414
1510 1504 1500 1499 1498 1498 1498 1499 1500 1500 1488 1470 1472 1473 1474 1474 1475 1477 1479 1482 1481 1479 1478 1470 1474 1472 1465 1468 1469 1471 1474 1475 1476 1476 1469 1441 1449 1415 1404 1406 1407 1408 1410 1413 1414
1507 1502 1498 1497 1498 1497 1497 1499 1501 1490 1470 1474 1476 1476 1475 1470 1471 1472 1473 1475 1474 1477 1471 1464 1463 1463 1466 1467 1470 1470 1468 1469 1470 1477 1448 1466 1458 1412 1405 1408 1408 1408 1409 1409 1411
1506 1503 1501 1498 1496 1496 1498 1499 1496 1480 1482 1485 1482 1477 1474 1474 1470 1472 1470 1468 1472 1471 1464 1458 1451 1455 1455 1451 1453 1458 1459 1455 1450 1449 1437 1464 1441 1407 1406 1409 1409 1410 1409 1407 1407
1506 1503 1502 1499 1497 1496 1499 1497 1489 1500 1504 1496 1482 1475 1473 1477 1479 1472 1469 1467 1471 1472 1464 1447 1440 1449 1449 1449 1449 1457 1460 1453 1452 1459 1452 1425 1419 1408 1401 1405 1407 1409 1410 1409 1409
1506 1504 1503 1501 1499 1498 1498 1497 1502 1508 1506 1501 1492 1487 1483 1482 1481 1474 1467 1482 1482 1479 1473 1458 1449 1438 1445 1450 1450 1446 1443 1456 1454 1450 1440 1421 1422 1409 1402 1402 1404 1408 1409 1410 1410
1509 1507 1506 1501 1499 1500 1500 1509 1509 1509 1508 1503 1498 1493 1488 1494 1492 1483 1469 1488 1485 1481 1474 1470 1455 1442 1447 1442 1437 1447 1444 1440 1435 1430 1419 1412 1405 1399 1402 1403 1403 1406 1408 1410 1410
1513 1511 1509 1501 1505 1509 1510 1514 1512 1507 1508 1505 1502 1501 1502 1501 1496 1488 1481 1482 1486 1487 1485 1482 1469 1444 1431 1430 1433 1430 1427 1427 1422 1422 1425 1415 1400 1396 1398 1402 1405 1406 1407 1409 1409
1517 1516 1513 1508 1511 1511 1514 1513 1512 1509 1507 1505 1502 1502 1501 1501 1502 1492 1490 1489 1487 1489 1489 1489 1471 1453 1425 1425 1434 1432 1426 1426 1419 1417 1407 1419 1398 1397 1399 1400 1402 1404 1405 1407 1407
1521 1518 1517 1515 1518 1518 1516 1511 1510 1508 1506 1505 1504 1501 1500 1498 1497 1491 1487 1486 1487 1485 1484 1483 1480 1473 1450 1423 1442 1431 1419 1415 1416 1413 1397 1397 1398 1394 1398 1397 1398 1401 1403 1404 1404
1523 1523 1523 1518 1515 1516 1519 1513 1509 1505 1505 1503 1499 1498 1499 1499 1491 1487 1482 1480 1480 1479 1477 1475 1471 1466 1457 1455 1451 1447 1446 1426 1411 1400 1395 1380 1389 1394 1390 1390 1393 1398 1399 1396 1396
1525 1523 1522 1518 1516 1515 1512 1509 1505 1502 1503 1499 1499 1496 1495 1493 1489 1487 1481 1478 1475 1472 1474 1472 1466 1460 1455 1448 1446 1442 1434 1430 1421 1400 1395 1390 1385 1387 1394 1393 1395 1394 1395 1393 1392
1521 1518 1517 1513 1512 1511 1505 1504 1500 1499 1497 1495 1495 1493 1490 1485 1484 1479 1477 1473 1470 1466 1458 1464 1463 1458 1445 1437 1436 1422 1412 1415 1410 1400 1390 1384 1380 1388 1388 1389 1391 1391 1393 1392 1389
Wind_Speed
10 10 10 10 11 12 13 13 14 14 13 13 13 14 15 15 13 13 10 8 8 8 4 4 2 1 3 3 3 3 5 7 5 6 3 7 8 9 10 15 16 17 18 19 18
10 10 11 10 11 12 13 14 14 14 14 14 14 15 16 17 18 19 9 7 6 6 4 3 4 3 3 4 4 7 5 5 5 7 10 13 15 18 18 20 20 20 17 13 18
10 10 10 11 12 12 12 13 13 14 14 15 15 15 16 17 17 3 5 3 4 5 6 4 5 3 6 5 7 5 6 5 12 15 16 19 20 19 20 19 21 21 19 15 19
12 12 12 12 13 13 13 14 13 14 15 15 15 15 15 12 6 8 5 3 4 5 6 5 4 4 4 6 8 9 16 18 17 14 14 15 19 19 20 27 22 22 23 23 23
12 13 13 14 15 16 17 17 16 15 15 16 16 15 13 7 11 12 9 5 6 7 8 6 6 5 6 5 6 15 16 17 20 21 21 22 24 26 30 28 25 24 23 22 20
14 14 15 15 16 16 17 18 17 15 15 16 16 15 11 9 9 9 10 7 8 8 9 9 5 5 6 7 7 5 12 20 22 25 23 21 21 10 15 15 19 21 23 21 19
15 16 17 18 19 19 19 20 19 19 19 19 18 16 16 19 11 12 12 9 8 8 8 9 7 6 2 6 8 11 15 17 17 13 7 6 14 15 20 8 12 12 16 22 22
20 20 20 20 20 21 21 22 22 22 21 18 15 12 11 12 13 17 15 12 11 10 8 7 7 6 6 6 6 7 8 6 2 4 3 4 19 10 10 7 15 20 15 16 16
23 24 24 23 23 24 23 24 24 23 21 14 10 9 9 9 13 16 17 13 12 10 9 6 5 5 4 5 7 5 8 10 11 3 4 6 18 9 12 16 26 22 17 15 15
26 27 28 27 27 26 24 23 22 18 12 8 11 6 11 6 8 15 18 15 10 11 7 7 6 7 5 7 5 4 8 8 11 3 11 21 28 24 25 21 24 23 23 19 20
28 28 29 28 28 26 23 16 8 6 7 10 6 15 12 7 7 11 22 17 8 10 8 10 8 14 14 15 10 8 12 16 16 14 14 15 24 25 27 23 26 27 26 25 24
23 23 23 22 20 17 14 6 7 8 12 26 32 31 25 15 8 11 20 14 12 13 10 5 14 16 9 9 11 13 14 16 13 2 9 19 28 27 14 10 20 24 23 24 24
22 22 22 21 18 6 6 4 7 10 7 12 9 5 4 18 13 15 22 11 8 12 15 16 1 3 10 8 10 12 15 15 11 13 10 14 14 7 10 4 1 10 18 20 22
22 22 21 19 4 9 4 4 6 8 5 4 1 1 2 5 6 10 20 8 7 11 12 12 16 9 7 10 11 11 6 14 10 7 6 7 7 12 7 12 3 5 12 15 16
22 22 20 15 14 5 5 6 4 2 5 4 3 3 2 2 2 3 16 10 10 8 7 6 5 10 11 9 13 5 3 4 5 8 11 4 4 7 7 6 7 7 4 9 8
25 23 18 12 7 3 2 1 2 2 8 1 2 1 2 4 2 3 6 5 0 7 12 16 2 5 6 6 13 4 5 2 2 4 6 6 6 6 3 0 1 4 6 3 2
27 17 14 9 3 4 2 2 2 5 3 3 4 6 3 3 4 7 9 11 7 5 9 7 16 6 10 8 7 11 7 3 4 4 5 1 5 13 6 6 9 9 8 9 5
22 9 16 15 9 3 4 3 7 3 4 8 8 12 5 9 1 1 3 7 12 7 4 6 10 13 13 16 10 21 12 5 6 4 1 3 8 4 2 2 3 6 9 6 1
14 12 19 17 10 2 3 4 4 5 7 12 14 4 2 2 9 4 4 4 7 8 8 7 12 2 11 5 11 9 9 6 4 2 4 6 8 14 12 9 8 4 4 10 11
18 5 20 12 11 5 3 0 2 6 8 4 5 5 5 10 10 9 4 7 9 12 13 5 9 8 4 5 6 7 12 5 5 6 7 6 7 10 3 3 11 9 11 9 5
15 3 25 8 6 3 1 3 2 3 9 5 5 9 10 7 5 6 7 6 15 16 14 11 7 3 5 12 13 7 8 7 3 5 6 6 5 6 9 6 11 9 12 6 2
12 3 25 11 7 4 2 7 8 6 9 4 4 2 3 6 8 8 12 8 21 15 9 8 6 10 18 9 13 20 15 19 9 12 5 9 9 3 4 4 5 8 7 2 5
6 6 13 20 5 6 6 5 5 6 7 5 4 4 7 6 6 9 7 13 23 7 8 8 4 6 16 14 8 11 17 16 19 12 19 10 8 3 4 6 10 8 12 4 11
6 3 7 9 2 2 5 5 6 6 9 5 9 11 7 11 12 9 15 10 21 20 25 12 9 16 15 17 16 9 16 23 23 15 22 19 17 11 7 4 5 7 12 11 11
7 2 1 5 6 10 2 4 10 10 6 8 6 8 13 11 15 19 15 19 23 20 20 5 11 17 22 24 26 21 22 23 20 28 22 24 22 20 18 14 12 11 18 19 14
5 3 2 11 11 9 5 8 12 15 10 12 13 18 17 16 17 19 21 21 16 17 16 14 15 18 23 26 26 29 29 24 25 25 26 27 26 10 12 16 15 19 16 18 22
14 9 6 6 6 6 12 12 16 16 17 21 17 15 17 20 26 26 27 28 23 24 26 21 17 19 25 27 25 22 28 28 26 26 25 23 22 15 19 18 18 22 17 18 22
Wind_Direction
2 350 336 323 313 306 301 298 297 299 304 308 311 315 318 320 316 309 265 273 263 261 263 259 222 206 175 194 194 197 247 257 255 255 275 296 280 270 268 277 280 283 277 286 293
15 6 356 345 330 318 310 305 301 298 298 299 301 304 308 313 313 299 237 281 271 243 224 205 180 185 189 208 211 225 252 254 251 263 278 286 280 285 283 277 275 277 278 274 284
8 3 357 353 348 340 328 315 309 308 307 306 304 303 304 312 318 221 194 271 246 218 207 199 187 179 220 209 208 209 249 280 266 268 278 283 281 279 272 270 266 266 270 273 284
2 358 353 350 346 343 339 331 320 309 305 307 306 301 299 304 294 199 248 264 224 202 200 194 175 199 228 223 220 252 255 267 279 275 279 275 285 274 268 266 266 260 265 272 282
350 346 345 343 342 340 338 333 327 319 310 306 304 299 299 277 256 248 238 232 213 206 204 198 208 222 239 233 248 243 268 275 274 275 271 278 271 271 270 266 264 262 264 262 274
337 335 333 332 332 332 331 328 324 320 314 305 298 291 274 253 254 232 217 220 213 207 206 204 220 225 266 250 236 298 276 279 281 275 278 270 274 268 264 274 259 260 263 265 258
322 321 322 325 326 326 326 324 320 314 309 301 288 279 265 261 244 217 216 216 214 211 209 216 215 209 236 262 269 280 291 288 279 275 251 274 258 235 257 264 268 276 274 266 256
321 320 319 319 318 317 318 317 314 311 305 298 281 263 253 256 228 219 212 207 205 204 207 213 217 230 233 286 270 271 274 297 110 221 245 228 271 258 223 238 288 292 276 274 270
319 318 315 313 313 312 315 316 313 310 302 292 263 235 268 254 230 218 212 211 204 200 197 195 186 238 215 242 270 212 281 273 300 211 275 237 289 275 246 254 283 274 270 267 263
315 312 310 310 309 308 311 314 312 303 289 280 245 241 237 241 226 211 205 205 184 175 164 190 212 235 213 202 250 258 268 263 274 283 277 286 275 278 270 263 253 256 266 256 255
321 318 315 314 308 305 306 317 308 298 262 230 259 255 284 260 198 214 200 186 170 185 202 197 220 221 220 217 257 274 271 275 280 284 296 277 285 286 284 265 247 250 248 246 244
328 324 321 324 321 312 303 299 288 286 294 277 273 263 258 247 216 198 186 185 195 214 195 193 238 249 261 241 236 249 266 276 288 241 294 300 296 294 298 284 247 237 243 245 245
330 326 327 332 328 336 331 325 320 320 266 283 267 261 272 215 226 201 185 195 208 225 213 225 320 15 203 218 220 240 251 272 276 316 263 300 286 301 321 297 230 233 240 246 238
332 327 327 331 314 324 282 305 328 324 284 254 189 75 130 161 207 206 192 193 203 234 217 243 257 227 205 236 220 266 251 263 285 307 298 358 293 309 322 325 261 218 237 242 237
331 323 324 323 308 300 291 301 305 336 298 40 67 107 140 214 122 178 199 212 228 190 184 214 208 199 216 229 193 248 162 218 273 283 310 207 253 273 319 351 36 55 20 231 239
340 329 325 324 314 270 200 263 156 208 245 28 97 45 227 204 168 128 177 210 17 238 239 256 231 223 227 191 201 146 164 204 260 269 255 235 226 277 259 114 75 355 17 71 234
350 348 354 356 298 218 221 154 207 209 18 28 2 357 316 248 206 194 182 191 205 200 219 218 231 218 207 225 193 199 184 233 228 213 256 69 228 259 253 242 284 300 327 314 274
355 23 18 4 350 270 177 196 227 22 354 10 339 310 251 6 34 272 225 236 227 241 275 259 261 189 184 215 195 198 193 212 246 213 183 166 237 256 284 195 256 291 315 329 51
8 36 31 15 7 125 196 210 344 24 342 336 326 314 144 61 344 313 227 263 12 249 247 275 254 152 199 168 174 163 215 227 260 192 265 225 257 279 258 250 238 169 118 99 75
357 359 22 13 13 68 238 29 114 40 345 319 314 0 326 341 331 350 291 36 346 1 342 305 285 236 165 182 208 212 152 166 215 217 235 223 252 245 268 205 158 143 145 140 82
2 34 356 338 353 340 341 29 343 357 10 325 300 293 297 320 310 294 268 77 18 352 339 350 246 188 152 210 196 185 205 219 233 232 239 247 231 196 219 156 167 151 164 164 349
9 24 9 15 54 36 33 337 330 337 356 317 296 329 348 337 297 281 287 320 2 354 351 2 294 260 244 237 238 234 236 210 217 199 246 273 244 166 197 221 205 190 208 166 341
8 342 360 35 39 9 342 310 285 327 344 332 299 6 318 307 309 295 299 311 325 358 358 342 306 296 254 229 214 235 235 244 242 265 237 221 234 210 245 245 227 238 189 265 336
4 346 352 43 69 2 335 336 319 307 295 271 301 301 302 296 290 283 284 292 301 301 299 274 245 254 269 282 330 277 255 233 227 228 238 232 243 202 223 239 205 224 237 283 298
16 58 5 326 329 315 251 276 296 301 289 304 277 265 303 291 292 288 291 304 294 283 285 244 259 273 282 287 291 290 296 292 244 235 238 240 231 238 258 271 287 274 279 295 317
347 328 243 276 282 252 278 277 272 288 273 270 280 286 300 287 285 293 289 280 284 291 270 263 270 278 279 274 276 278 281 276 283 257 247 252 254 242 268 277 276 277 279 295 296
307 269 252 294 246 240 275 269 276 284 282 269 286 284 284 281 290 291 285 280 273 276 272 264 259 261 264 273 278 265 251 259 266 263 249 245 244 244 248 256 254 263 270 269 281